Torna al catalogo

ONEWEB-0061

AttivoComunicazioniPO
NORAD 45428·PAYLOAD·🇬🇧 United Kingdom

Lanciato Mar 21, 2020 da Baikonur Cosmodrome

Loading…

Prossimi Passaggi (prossime 24 ore)

TLE

AggiornatoSource: CelesTrak SupGP

Epoca: Sep 14, 2026, 20:07 UTC

1 45428C 20020E   26257.83837222  .00000130  00000+0  36778-3 0  2578
2 45428  87.8981   3.2368 0001817 100.5068 358.9609 13.11420535    11

Traccia ONEWEB-0061 in tempo reale con AllMySat

Download on the App Store